User: anonymous   Login
Location: Baix
(44.7118°N, 4.7648°E)
Time: 01:20:42
(UTC+00:00)
Language:

Cosmos 2263 Rocket - Orbit

View from above orbital plane
View from above orbital plane
View from above satellite
View from above satellite

Ground track
Ground track

The orbit data is extracted from the following two-line orbital elements,

1 22803U 93059B   20302.41525435 +.00000223 +00000-0 +13497-3 0  9991
2 22803 070.9902 179.0622 0018981 308.8627 051.0802 14.16828922402131
Epoch (UTC): 28 October 2020 09:57:57
Eccentricity: 0.0018981
inclination: 70.9902°
perigee height: 822 km
apogee height: 850 km
right ascension of ascending node: 179.0622°
argument of perigee: 308.8627°
revolutions per day: 14.16828922
mean anomaly at epoch: 51.0802°
orbit number at epoch: 40213

The dashed part of the orbit path shows where the satellite is in the earth's shadow,  

DLR